This is the latest recevied weather packets stored in our database for station/object KD4EG. If no packets are shown the sender has not sent any weather packets the latest 10 day(s).
| Time | Temp. | Humidity | Pressure | Rain* | Wind** | Luminosity | Snow |
|---|---|---|---|---|---|---|---|
| 1788568869 | 27.78° C | 63% | 1017 hPa | 0 mm | - | 0 W/m² | - |
| 1788568564 | 27.78° C | 63% | 1017.2 hPa | 0 mm | - | 0 W/m² | - |
| 1788568260 | 27.78° C | 64% | 1017.1 hPa | 0 mm | - | 0 W/m² | - |
| 1788567955 | 27.78° C | 63% | 1017.3 hPa | 0 mm | - | 0 W/m² | - |
| 1788567650 | 27.78° C | 62% | 1017 hPa | 0 mm | - | 0 W/m² | - |
| 1788567345 | 27.78° C | 63% | 1017.1 hPa | 0 mm | - | 0 W/m² | - |
| 1788567045 | 27.78° C | 62% | 1017 hPa | 0 mm | - | 0 W/m² | - |
| 1788566740 | 28.33° C | 62% | 1016.9 hPa | 0 mm | - | 0 W/m² | - |
| 1788566436 | 28.33° C | 61% | 1016.8 hPa | 0 mm | - | 0 W/m² | - |
| 1788566131 | 28.33° C | 61% | 1016.8 hPa | 0 mm | - | 0 W/m² | - |
| 1788565831 | 28.89° C | 60% | 1016.8 hPa | 0 mm | - | 1 W/m² | - |
| 1788565531 | 28.89° C | 59% | 1016.9 hPa | 0 mm | - | 5 W/m² | - |
| 1788565227 | 30° C | 58% | 1016.9 hPa | 0 mm | - | 9 W/m² | - |
| 1788564921 | 30° C | 57% | 1016.6 hPa | 0 mm | - | 12 W/m² | - |
| 1788564618 | 30° C | 56% | 1016.7 hPa | 0 mm | - | 15 W/m² | - |
| 1788564314 | 30° C | 56% | 1016.6 hPa | 0 mm | - | 17 W/m² | - |
| 1788564010 | 30.56° C | 56% | 1016.3 hPa | 0 mm | - | 21 W/m² | - |
| 1788563706 | 30.56° C | 56% | 1016.5 hPa | 0 mm | - | 24 W/m² | - |
| 1788563401 | 31.11° C | 54% | 1016.6 hPa | 0 mm | - | 41 W/m² | - |
| 1788563099 | 31.11° C | 54% | 1016.8 hPa | 0 mm | - | 57 W/m² | - |
| 1788562795 | 31.11° C | 55% | 1017 hPa | 0 mm | - | 38 W/m² | - |
| 1788562493 | 31.11° C | 55% | 1017 hPa | 0 mm | - | 32 W/m² | - |
| 1788562186 | 31.67° C | 55% | 1017 hPa | 0 mm | - | 35 W/m² | - |
| 1788561883 | 32.78° C | 54% | 1017.2 hPa | 0 mm | - | 51 W/m² | - |
| 1788561582 | 33.33° C | 58% | 1017.3 hPa | 0 mm | - | 72 W/m² | - |
* Rain latest hour (hover to see other rain measurements)
** Current wind speed in m/s (hover to see current wind gust speed)